Location: La Coruña
(43.3623°N, 8.4115°W)
Time: 17:28:15
(UTC+01:00)

STARLINK-1091 - Pass Details

Date: 19 January 2020
Orbit: 349 x 350 km, 53.0° (Epoch: 18 February)

Event Time Altitude Azimuth Distance (km) Brightness Sun altitude
Rises 20:43:48 0° 281° (WNW) 2,162 7.9 -24.4°
Reaches altitude 10° 20:46:20 10° 305° (NW) 1,321 6.2 -24.9°
Enters shadow 20:46:56 13° 315° (NW) 1,180 5.8 -25.0°
